Location: New Frontier Mobile Home Park
(32.8448°N, 116.9675°W)
Time: 21:27:55
(UTC+00:00)

Terra - Pass Details

Date: 14 July 2020
Orbit: 701 x 703 km, 98.2° (Epoch: 05 August)

Event Time Altitude Azimuth Distance (km) Brightness Sun altitude
Exits shadow 05:35:47 47° 46° (NE) 927 2.4 -26.4°
Drops below altitude 10° 05:39:45 10° 359° (N) 2,174 5.0 -26.8°
Sets 05:42:03 0° 355° (N) 3,095 6.1 -27.1°
